FENGYUN 1C DEB

Satellite information

Favourite Embed

Satellite Type and Status

DEBRISIN ORBIT

Key statistics

Satellite FENGYUN 1C DEB at a glance.

Uptime

9665

Days in orbit

Revolutions

≈ 14.6

Per day

Orbit

SSO

Sun Synchronous Orbit

Inclination

99.3

Latest

Satellite identification and parameters

Extended collection of information and parameters for FENGYUN 1C DEB.

Object identification

Identified? True

Debris? True

Object name: FENGYUN 1C DEB

International designator: 1999-025AFP

Object number (NORAD): 30452

Object ID (CCSDS): 30452

Country: PEOPLES REPUBLIC OF CHINA (PRC)

Current information (Y/N): Y

RCS size: SMALL

Orbital parameters

Period: 98.497 minutes

Inclination: 99.3216 deg

SMA: 7064.935 km

Apoapsis: 721.18 km

Periapsis: 652.42 km

RAAN: 70.3246 deg

Eccentricy: 0.00486624

Argument of periapsis: 39.7508 deg

Mean anomaly: 88.4255 deg

Mean motion: 14.61976836 rev/day

Mean motion (dot): 0.00020887 rev/day2

B* drag term: 0.004097917 1/REarth

Two-line elements (TLE)

Creation date: Oct. 25, 2025, 3:11 a.m.

Reference frame: TEME

Reference center: EARTH

Epoch: Oct. 24, 2025, 10:29 p.m. UTC

TLE line 0: 0 FENGYUN 1C DEB

TLE line 1: 1 30452U 99025AFP 25297.93681772 .00020887 00000-0 40979-2 0 9993

TLE line 2: 2 30452 99.3216 70.3246 0048662 39.7508 88.4255 14.61976836973930

Live tracking on map

Real-time ground track for satellite FENGYUN 1C DEB.

In-orbit conjunctions

A list of the most updated potential collisions computed for object FENGYUN 1C DEB.

Target Orbit TCA Probability of collision Miss distance Type
COSMOS 2251 DEB LEO 2025-09-18 01:47:52 0.0001100154 114.0 (m) DEBRIS
COSMOS 2251 DEB LEO 2024-09-25 00:00:37 0.0001572656 332.0 (m) DEBRIS

Associated space launch

Chinese polar orbiting meteorological satellite

FENGYUN 1C DEB was lifted into orbit during the mission ‘Long March 4B | Feng Yun 1C’, on board a Long March 4B space rocket.

The launch took place on May 10, 1999, 1:33 a.m. from Launch Complex 7.

For more information about the launch, click the button.

Launch to space Long March 4B | Feng Yun 1C
Long March 4B | Feng Yun 1C

Agency: N/A

Status: Launch Successful

Launch date: May 10, 1999, 1:33 a.m. UTC

Rocket: Long March 4B

Launch pad: Launch Complex 7

Location: Taiyuan Satellite Launch Center, People's Republic of China

...

Latest news about this satellite

There are no fresh news available about this satellite. Check back as we update our databases every day.


Newsletter sign-up

Weekly statistics, charts and insights to help you stay on top of the space industry.